Weather History for KCDJ - November, 2012

Change the Weather History Date:

Monday, November 12, 2012

  Actual Average (KIRK) Record (KIRK)
Temperature  
Mean Temperature 34 °F 42 °F  
Max Temperature 43 °F 52 °F - ()
Min Temperature 24 °F 33 °F - ()
Degree Days  
Heating Degree Days 32 23  
Month to date heating degree days 242  
Since 1 July heating degree days 731  
Cooling Degree Days 0 0  
Month to date cooling degree days 0  
Year to date cooling degree days 939  
Moisture  
Dew Point 20 °F    
Average Humidity 65    
Maximum Humidity 88    
Minimum Humidity 38    
Precipitation  
Precipitation 0.00 in 0.10 in - ()
Month to date precipitation 1.34  
Year to date precipitation 36.18  
Sea Level Pressure  
Sea Level Pressure 30.38 in    
Wind  
Wind Speed 5 mph (WSW)    
Max Wind Speed 15 mph    
Max Gust Speed 26 mph    
T = Trace of Precipitation, MM = Missing Value Source: NWS Daily Summary

Daily Weather History Graph

Daily Weather History Graph

Search for Another Location

Airport or City:

Trip Planner

Search our weather history database for the weather conditions in past years. The results will help you decide how hot, cold, wet, or windy it might be!

Date:

Astronomy

Nov. 12, 2012 Rise Set
Actual Time 6:56 AM CST 5:00 PM CST
Civil Twilight 6:27 AM CST 5:29 PM CST
Nautical Twilight 5:54 AM CST 6:01 PM CST
Astronomical Twilight 5:23 AM CST 6:33 PM CST
Moon 5:22 AM CST (11/12) 4:05 PM CST (11/12)
Length of Visible Light 11h 01m
Length of Day
10h 04m
Waning Crescent, 2% of the Moon is Illuminated
Nov 12
Waning Crescent
Nov 13
New
Nov 20
First Quarter
Nov 28
Full
Dec 6
Last Quarter

Hourly Weather History & Observations

Time (CST) Temp. Windchill Dew Point Humidity Pressure Visibility Wind Dir Wind Speed Gust Speed Precip Events Conditions
12:52 AM 27.0 °F 20.5 °F 18.0 °F 69% 30.26 in - West 5.8 mph - N/A   Unknown
1:52 AM 27.0 °F - 19.0 °F 72% 30.28 in - Calm Calm - N/A   Unknown
2:52 AM 26.1 °F 21.9 °F 18.0 °F 71% 30.30 in - WSW 3.5 mph - N/A   Unknown
3:52 AM 25.0 °F 20.7 °F 18.0 °F 75% 30.30 in - WSW 3.5 mph - N/A   Unknown
4:52 AM 24.1 °F 19.7 °F 18.0 °F 77% 30.32 in - SW 3.5 mph - N/A   Unknown
5:52 AM 25.0 °F 20.7 °F 18.0 °F 75% 30.34 in - SW 3.5 mph - N/A   Unknown
6:52 AM 25.0 °F 18.1 °F 18.0 °F 75% 30.35 in - SW 5.8 mph - N/A   Unknown
7:52 AM 28.0 °F 20.8 °F 19.0 °F 69% 30.36 in - SW 6.9 mph - N/A   Unknown
8:52 AM 30.9 °F 23.5 °F 19.0 °F 61% 30.37 in - West 8.1 mph - N/A   Unknown
9:52 AM 34.0 °F 28.0 °F 19.9 °F 56% 30.38 in - West 6.9 mph - N/A   Unknown
10:52 AM 37.0 °F 31.0 °F 21.0 °F 52% 30.38 in - West 8.1 mph - N/A   Unknown
11:52 AM 39.0 °F 32.3 °F 21.0 °F 49% 30.36 in - WSW 10.4 mph 18.4 mph N/A   Unknown
12:52 PM 41.0 °F 33.9 °F 19.9 °F 43% 30.35 in - West 12.7 mph 24.2 mph N/A   Unknown
1:52 PM 42.1 °F 34.5 °F 19.0 °F 40% 30.35 in - West 15.0 mph 23.0 mph N/A   Unknown
2:52 PM 43.0 °F 36.4 °F 19.0 °F 38% 30.36 in - West 12.7 mph 26.5 mph N/A   Unknown
3:52 PM 43.0 °F 38.2 °F 19.0 °F 38% 30.38 in - West 8.1 mph 23.0 mph N/A   Unknown
4:52 PM 41.0 °F 36.4 °F 19.9 °F 43% 30.39 in - West 6.9 mph - N/A   Unknown
5:52 PM 37.9 °F - 21.0 °F 51% 30.41 in - Calm Calm - N/A   Unknown
6:52 PM 32.0 °F - 24.1 °F 73% 30.44 in - Calm Calm - N/A   Unknown
7:52 PM 28.9 °F - 23.0 °F 78% 30.45 in - Calm Calm - N/A   Unknown
8:52 PM 28.0 °F - 24.1 °F 85% 30.46 in - Calm Calm - N/A   Unknown
9:52 PM 27.0 °F - 23.0 °F 85% 30.48 in - Calm Calm - N/A   Unknown
10:52 PM 25.0 °F - 21.9 °F 88% 30.48 in - Calm Calm - N/A   Unknown
11:52 PM 25.0 °F - 21.0 °F 85% 30.48 in - Calm Calm - N/A   Unknown